UAE7 OMDB-EGLL

Flight info

Callsign UAE7
Flight time N/A
Altitude 36000
Route SENPA N571 ALPOB L768 ULADA Q143 MEDGO N697 HIL A788 HLF L604 WEJ/N0497F380 L677 CVO L617 NOZ L551 ANTAR UN133 KPC DCT FSK DCT DISOR DCT LONTA UL608 DOLEV DCT BOSNA DCT MARIL DCT OKSIG DCT KUSIB DCT GORPA/N0483F400 DCT DOL DCT NIPEL DCT MODSA DCT BABEG DCT LIRSU DCT ARCKY DCT BUB L608 LOGAN
Aircraft A388/J-SADE2E3FGHIJ3J4J5M1RWXY/LB1D1

Departure

Time 2026-05-04 00:15
Airport Dubai International Airport (OMDB)

Arrival

Time N/A
Airport London Heathrow Airport (EGLL)
Time Latitude Longitude Altitude Speed Heading
2026-05-03 23:16 25.25025 55.36066 26 ft 0 kts 211°
2026-05-03 23:42 25.25031 55.36070 27 ft 3 kts 211°
2026-05-03 23:42 25.25048 55.36081 25 ft 3 kts 211°
2026-05-03 23:42 25.25062 55.36090 26 ft 3 kts 213°
2026-05-03 23:42 25.25077 55.36104 25 ft 3 kts 241°
2026-05-03 23:43 25.25082 55.36123 25 ft 3 kts 279°
2026-05-03 23:43 25.25076 55.36143 24 ft 3 kts 300°
2026-05-03 23:43 25.25065 55.36162 24 ft 3 kts 304°
2026-05-03 23:43 25.25059 55.36172 25 ft 1 kts 301°
2026-05-03 23:44 25.25058 55.36175 25 ft 0 kts 301°
2026-05-03 23:59 25.25070 55.36152 27 ft 7 kts 302°
2026-05-03 23:59 25.25088 55.36121 27 ft 0 kts 301°
2026-05-03 23:59 25.25101 55.36099 27 ft 3 kts 326°
2026-05-03 23:59 25.25115 55.36097 27 ft 2 kts 21°
2026-05-04 00:00 25.25142 55.36117 27 ft 7 kts 50°
2026-05-04 00:00 25.25151 55.36183 27 ft 11 kts 110°
2026-05-04 00:00 25.25171 55.36255 27 ft 9 kts 32°
2026-05-04 00:00 25.25212 55.36281 27 ft 0 kts 30°
2026-05-04 00:05 25.25212 55.36282 27 ft 1 kts 30°
2026-05-04 00:05 25.25262 55.36315 27 ft 20 kts 38°
2026-05-04 00:05 25.25299 55.36417 27 ft 10 kts 78°
2026-05-04 00:05 25.25353 55.36489 27 ft 16 kts 33°
2026-05-04 00:06 25.25397 55.36574 27 ft 15 kts 100°
2026-05-04 00:06 25.25339 55.36700 27 ft 22 kts 122°
2026-05-04 00:06 25.25245 55.36869 27 ft 29 kts 120°
2026-05-04 00:06 25.25135 55.37071 27 ft 30 kts 122°
2026-05-04 00:07 25.25035 55.37256 27 ft 27 kts 121°
2026-05-04 00:07 25.24942 55.37426 27 ft 25 kts 121°
2026-05-04 00:07 25.24850 55.37591 27 ft 25 kts 122°
2026-05-04 00:07 25.24757 55.37757 27 ft 26 kts 122°
2026-05-04 00:08 25.24661 55.37925 27 ft 26 kts 122°
2026-05-04 00:08 25.24562 55.38095 27 ft 26 kts 122°
2026-05-04 00:08 25.24467 55.38269 27 ft 26 kts 120°
2026-05-04 00:08 25.24375 55.38445 27 ft 27 kts 120°
2026-05-04 00:09 25.24354 55.38485 27 ft 0 kts 120°
2026-05-04 00:09 25.24353 55.38487 27 ft 2 kts 120°
2026-05-04 00:09 25.24351 55.38489 27 ft 0 kts 120°
2026-05-04 00:12 25.24534 55.38155 27 ft 0 kts 120°
2026-05-04 00:12 25.24512 55.38200 27 ft 14 kts 109°
2026-05-04 00:12 25.24571 55.38293 27 ft 22 kts 25°
2026-05-04 00:13 25.24633 55.38310 27 ft 8 kts 339°
2026-05-04 00:13 25.24672 55.38255 27 ft 12 kts 300°
2026-05-04 00:13 25.24694 55.38220 27 ft 0 kts 303°
2026-05-04 00:14 25.24748 55.38124 27 ft 46 kts 301°
2026-05-04 00:14 25.25047 55.37586 27 ft 114 kts 302°
2026-05-04 00:14 25.25555 55.36675 27 ft 161 kts 301°
2026-05-04 00:14 25.26194 55.35537 174 ft 177 kts 300°
2026-05-04 00:15 25.26828 55.34418 670 ft 173 kts 300°
2026-05-04 00:15 25.27451 55.33284 1108 ft 169 kts 300°
2026-05-04 00:15 25.28046 55.32201 1668 ft 163 kts 300°
2026-05-04 00:15 25.28652 55.31098 1944 ft 172 kts 300°
2026-05-04 00:16 25.29268 55.29949 2243 ft 175 kts 295°
2026-05-04 00:16 25.29647 55.28667 2565 ft 177 kts 279°
2026-05-04 00:16 25.29739 55.27299 2806 ft 183 kts 274°
2026-05-04 00:16 25.29831 55.25869 3010 ft 188 kts 275°
2026-05-04 00:17 25.29945 55.24422 3277 ft 189 kts 275°
2026-05-04 00:17 25.30063 55.22964 3478 ft 195 kts 275°
2026-05-04 00:17 25.30188 55.21437 3550 ft 204 kts 275°
2026-05-04 00:17 25.30317 55.19834 3606 ft 218 kts 275°
2026-05-04 00:18 25.30410 55.18137 3997 ft 226 kts 269°
2026-05-04 00:18 25.30273 55.16365 4433 ft 238 kts 265°
2026-05-04 00:18 25.30115 55.14466 4646 ft 257 kts 265°
2026-05-04 00:18 25.29961 55.12477 5163 ft 261 kts 266°
2026-05-04 00:19 25.29808 55.10465 5773 ft 263 kts 266°
2026-05-04 00:19 25.29655 55.08448 6407 ft 264 kts 266°
2026-05-04 00:19 25.29500 55.06421 7003 ft 266 kts 266°
2026-05-04 00:19 25.29343 55.04380 7633 ft 267 kts 266°
2026-05-04 00:20 25.29185 55.02330 8256 ft 268 kts 266°
2026-05-04 00:20 25.29026 55.00271 8906 ft 269 kts 266°
2026-05-04 00:20 25.28866 54.98211 9588 ft 270 kts 266°
2026-05-04 00:20 25.28705 54.96126 10052 ft 278 kts 266°
2026-05-04 00:21 25.28538 54.93926 10189 ft 296 kts 267°
2026-05-04 00:21 25.28442 54.91593 10320 ft 313 kts 269°
2026-05-04 00:21 25.28393 54.89132 10545 ft 326 kts 269°
2026-05-04 00:21 25.28344 54.86618 11002 ft 330 kts 269°
2026-05-04 00:22 25.28284 54.84063 11490 ft 334 kts 269°
2026-05-04 00:22 25.28215 54.81479 11995 ft 338 kts 270°
2026-05-04 00:22 25.28141 54.78874 12478 ft 342 kts 270°
2026-05-04 00:22 25.28099 54.76233 12963 ft 345 kts 274°
2026-05-04 00:23 25.28347 54.73580 13409 ft 349 kts 282°
2026-05-04 00:23 25.28925 54.70971 13877 ft 350 kts 288°
2026-05-04 00:23 25.29606 54.68385 14403 ft 351 kts 287°
2026-05-04 00:23 25.30268 54.65786 14910 ft 353 kts 287°
2026-05-04 00:24 25.30927 54.63166 15405 ft 355 kts 287°
2026-05-04 00:24 25.31587 54.60534 15958 ft 355 kts 288°
2026-05-04 00:24 25.32250 54.57898 16431 ft 357 kts 288°
2026-05-04 00:24 25.32917 54.55246 16943 ft 359 kts 288°
2026-05-04 00:25 25.33588 54.52587 17414 ft 361 kts 288°
2026-05-04 00:25 25.34297 54.49919 17916 ft 362 kts 289°
2026-05-04 00:25 25.35030 54.47246 18322 ft 365 kts 289°
2026-05-04 00:25 25.35769 54.44553 18703 ft 367 kts 289°
2026-05-04 00:26 25.36508 54.41842 19088 ft 370 kts 289°
2026-05-04 00:26 25.37248 54.39114 19470 ft 372 kts 288°
2026-05-04 00:26 25.37991 54.36363 19837 ft 375 kts 288°
2026-05-04 00:26 25.38737 54.33594 20212 ft 377 kts 288°
2026-05-04 00:27 25.39486 54.30811 20586 ft 379 kts 288°
2026-05-04 00:27 25.40240 54.28005 20945 ft 382 kts 288°
2026-05-04 00:27 25.40968 54.25213 21298 ft 384 kts 287°
2026-05-04 00:27 25.41676 54.22356 21634 ft 387 kts 286°
2026-05-04 00:28 25.42381 54.19474 21992 ft 389 kts 286°
2026-05-04 00:28 25.43094 54.16570 22352 ft 392 kts 286°
2026-05-04 00:28 25.43808 54.13674 22750 ft 393 kts 286°
2026-05-04 00:28 25.44532 54.10750 23102 ft 396 kts 286°
2026-05-04 00:29 25.45256 54.07806 23429 ft 398 kts 286°
2026-05-04 00:29 25.45970 54.04844 23766 ft 399 kts 285°
2026-05-04 00:29 25.46681 54.01876 24114 ft 399 kts 285°
2026-05-04 00:29 25.47393 53.98904 24440 ft 400 kts 285°
2026-05-04 00:30 25.48109 53.95918 24725 ft 403 kts 285°
2026-05-04 00:30 25.48829 53.92917 25085 ft 403 kts 285°
2026-05-04 00:30 25.49548 53.89919 25424 ft 404 kts 285°
2026-05-04 00:30 25.50269 53.86913 25760 ft 405 kts 285°
2026-05-04 00:31 25.50991 53.83899 26112 ft 406 kts 285°
2026-05-04 00:31 25.51715 53.80876 26466 ft 407 kts 285°
2026-05-04 00:31 25.52440 53.77840 26839 ft 408 kts 285°
2026-05-04 00:31 25.53166 53.74801 27214 ft 409 kts 285°
2026-05-04 00:32 25.53897 53.71744 27538 ft 412 kts 285°
2026-05-04 00:32 25.54633 53.68672 27930 ft 413 kts 285°
2026-05-04 00:32 25.55368 53.65599 28432 ft 412 kts 285°
2026-05-04 00:32 25.56103 53.62527 28898 ft 413 kts 284°
2026-05-04 00:33 25.56839 53.59445 29275 ft 415 kts 284°
2026-05-04 00:33 25.58319 53.53233 30074 ft 419 kts 284°
2026-05-04 00:33 25.59062 53.50109 30402 ft 421 kts 284°
2026-05-04 00:34 25.59811 53.46959 30735 ft 423 kts 284°
2026-05-04 00:34 25.60562 53.43797 31071 ft 426 kts 284°
2026-05-04 00:34 25.61317 53.40615 31406 ft 428 kts 284°
2026-05-04 00:34 25.62072 53.37423 31735 ft 430 kts 284°
2026-05-04 00:35 25.62832 53.34207 32063 ft 433 kts 283°
2026-05-04 00:35 25.63594 53.30971 32385 ft 435 kts 283°
2026-05-04 00:35 25.64360 53.27722 32705 ft 437 kts 283°
2026-05-04 00:35 25.65129 53.24453 33011 ft 440 kts 283°
2026-05-04 00:36 25.65902 53.21166 33276 ft 443 kts 283°
2026-05-04 00:36 25.66681 53.17850 33641 ft 445 kts 283°
2026-05-04 00:36 25.67460 53.14529 33975 ft 446 kts 283°
2026-05-04 00:36 25.68241 53.11197 34227 ft 448 kts 283°
2026-05-04 00:37 25.69026 53.07844 34563 ft 449 kts 283°
2026-05-04 00:37 25.69824 53.04498 34950 ft 449 kts 284°
2026-05-04 00:37 25.70840 53.01227 35341 ft 449 kts 289°
2026-05-04 00:37 25.72128 52.98068 35677 ft 452 kts 294°
2026-05-04 00:38 25.73609 52.94971 35804 ft 456 kts 295°
2026-05-04 00:38 25.76533 52.88799 35796 ft 455 kts 294°
2026-05-04 00:39 25.79467 52.82573 35797 ft 455 kts 294°
2026-05-04 00:39 25.82400 52.76347 35794 ft 455 kts 294°
2026-05-04 00:40 25.85341 52.70097 35796 ft 456 kts 294°
2026-05-04 00:40 25.88279 52.63848 35798 ft 456 kts 294°
2026-05-04 00:41 25.91187 52.57586 35801 ft 456 kts 293°
2026-05-04 00:41 25.93957 52.51257 35795 ft 456 kts 293°
2026-05-04 00:42 25.96257 52.45994 35805 ft 456 kts 293°
2026-05-04 00:42 25.99058 52.39621 35805 ft 456 kts 293°
2026-05-04 00:43 26.01854 52.33346 35805 ft 456 kts 293°
2026-05-04 00:43 26.04697 52.26995 35804 ft 456 kts 293°
2026-05-04 00:44 26.07492 52.20728 35803 ft 456 kts 293°
2026-05-04 00:44 26.10304 52.14407 35823 ft 456 kts 293°
2026-05-04 00:45 26.13112 52.08087 35817 ft 455 kts 293°
2026-05-04 00:45 26.15914 52.01770 35805 ft 455 kts 293°
2026-05-04 00:46 26.18728 51.95461 35807 ft 455 kts 293°
2026-05-04 00:46 26.21560 51.89149 35810 ft 455 kts 293°
2026-05-04 00:47 26.24343 51.82818 35831 ft 455 kts 292°
2026-05-04 00:47 26.27137 51.76491 35821 ft 455 kts 293°
2026-05-04 00:48 26.29957 51.70179 35816 ft 455 kts 293°
2026-05-04 00:48 26.32771 51.63866 35813 ft 455 kts 293°
2026-05-04 00:49 26.35584 51.57556 35813 ft 454 kts 293°
2026-05-04 00:49 26.38250 51.51190 35829 ft 451 kts 288°
2026-05-04 00:50 26.40345 51.44603 35821 ft 450 kts 287°
2026-05-04 00:50 26.42451 51.38027 35820 ft 450 kts 287°
2026-05-04 00:51 26.44556 51.31451 35815 ft 450 kts 287°
2026-05-04 00:51 26.46657 51.24878 35817 ft 450 kts 287°
2026-05-04 00:52 26.48742 51.18344 35820 ft 450 kts 287°
2026-05-04 00:52 26.50849 51.11724 35830 ft 450 kts 286°
2026-05-04 00:53 26.52924 51.05195 35828 ft 449 kts 286°
2026-05-04 00:53 26.55008 50.98627 35826 ft 449 kts 286°
2026-05-04 00:54 26.57088 50.92058 35827 ft 448 kts 286°
2026-05-04 00:54 26.59142 50.85484 35819 ft 448 kts 286°
2026-05-04 00:55 26.61175 50.78904 35818 ft 448 kts 286°
2026-05-04 00:55 26.63206 50.72333 35831 ft 448 kts 285°
2026-05-04 00:56 26.65223 50.65751 35833 ft 447 kts 285°
2026-05-04 00:56 26.67168 50.59158 35825 ft 447 kts 285°
2026-05-04 00:57 26.69111 50.52561 35825 ft 447 kts 285°
2026-05-04 00:57 26.71037 50.45949 35826 ft 446 kts 283°
2026-05-04 00:58 26.72729 50.39278 35841 ft 446 kts 282°
2026-05-04 00:58 26.74409 50.32603 35841 ft 446 kts 283°
2026-05-04 00:59 26.75624 50.25841 35837 ft 442 kts 274°
2026-05-04 00:59 26.75826 50.18992 35833 ft 441 kts 269°
2026-05-04 01:00 26.75896 50.12131 35832 ft 440 kts 269°
2026-05-04 01:00 26.75967 50.05284 35826 ft 440 kts 269°
2026-05-04 01:01 26.76029 49.98446 35824 ft 440 kts 269°
2026-05-04 01:01 26.76087 49.91594 35818 ft 441 kts 269°
2026-05-04 01:02 26.76139 49.84733 35812 ft 441 kts 269°
2026-05-04 01:02 26.76188 49.77874 35827 ft 441 kts 269°
2026-05-04 01:03 26.76234 49.71018 35817 ft 440 kts 269°
2026-05-04 01:03 26.76277 49.64167 35812 ft 440 kts 269°
2026-05-04 01:04 26.76316 49.57323 35816 ft 440 kts 269°
2026-05-04 01:04 26.76356 49.50477 35813 ft 440 kts 269°
2026-05-04 01:05 26.76392 49.43636 35818 ft 440 kts 269°
2026-05-04 01:05 26.76425 49.36798 35819 ft 440 kts 269°
2026-05-04 01:06 26.76452 49.29954 35827 ft 440 kts 269°
2026-05-04 01:06 26.76477 49.23113 35834 ft 440 kts 269°
2026-05-04 01:07 26.76498 49.16310 35836 ft 440 kts 269°
2026-05-04 01:07 26.76516 49.09420 35848 ft 440 kts 268°
2026-05-04 01:08 26.76531 49.02627 35852 ft 439 kts 268°